When you browse on this site, cookies collect data to enhance your experience and personalize the content and advertising you see.
Visit our Privacy Policy to learn more. By continuing to use the site, you agree to this use of cookies and data.
  • In Hungary
  • List of Countries
  • For 7 days
  • Water Temperature
  • Satellite Maps
  • Weather Map
  • News
  • Weather Widgets
  • user-avatar
    Login

    Hourly Weather Cwietalka

    Today, 21 May, Tuesday

    Time Temperature Precipitation Wind Pressure Humidity
    00:00 +14°C° 0 mm 2 mps 734 mmHg 92%
    01:00 +13°C° 0 mm 3 mps 734 mmHg 93%
    02:00 +14°C° 0 mm 2 mps 734 mmHg 93%
    03:00 +14°C° 0 mm 2 mps 733 mmHg 92%
    04:00 +14°C° 0 mm 2 mps 733 mmHg 91%
    05:00 +15°C° 0 mm 2 mps 733 mmHg 88%
    06:00 +16°C° 0 mm 1 mps 733 mmHg 85%
    07:00 +18°C° 0 mm 1 mps 733 mmHg 81%
    08:00 +18°C° 0.4 mm 3 mps 733 mmHg 81%
    09:00 +18°C° 0.4 mm 4 mps 733 mmHg 81%
    10:00 +19°C° 0.4 mm 6 mps 732 mmHg 81%
    11:00 +19°C° 0.8 mm 6 mps 732 mmHg 79%
    12:00 +19°C° 0.8 mm 6 mps 732 mmHg 77%
    13:00 +20°C° 0.8 mm 6 mps 732 mmHg 75%
    14:00 +19°C° 0.3 mm 6 mps 732 mmHg 77%
    15:00 +17°C° 0.3 mm 6 mps 732 mmHg 80%
    16:00 +16°C° 0.3 mm 6 mps 731 mmHg 83%
    17:00 +15°C° 0.1 mm 6 mps 731 mmHg 85%
    18:00 +14°C° 0.1 mm 6 mps 731 mmHg 87%
    19:00 +13°C° 0.1 mm 6 mps 731 mmHg 90%
    20:00 +13°C° 0.2 mm 6 mps 731 mmHg 91%
    21:00 +13°C° 0.2 mm 6 mps 731 mmHg 91%
    22:00 +13°C° 0.2 mm 6 mps 731 mmHg 92%
    23:00 +13°C° 0.1 mm 6 mps 732 mmHg 92%

    Tomorrow, 22 May, Wednesday

    Time Temperature Precipitation Wind Pressure Humidity
    00:00 +13°C° 0.1 mm 6 mps 732 mmHg 93%
    01:00 +13°C° 0.1 mm 5 mps 732 mmHg 93%
    02:00 +13°C° 0.1 mm 5 mps 732 mmHg 93%
    03:00 +13°C° 0.1 mm 5 mps 732 mmHg 93%
    04:00 +13°C° 0.1 mm 5 mps 731 mmHg 93%
    05:00 +13°C° 0.2 mm 5 mps 732 mmHg 92%
    06:00 +13°C° 0.2 mm 5 mps 732 mmHg 92%
    07:00 +13°C° 0.2 mm 5 mps 732 mmHg 91%
    08:00 +14°C° 0.1 mm 5 mps 732 mmHg 89%
    09:00 +15°C° 0.1 mm 5 mps 732 mmHg 86%
    10:00 +15°C° 0.1 mm 5 mps 733 mmHg 83%
    11:00 +16°C° 0.3 mm 5 mps 733 mmHg 81%
    12:00 +17°C° 0.3 mm 5 mps 733 mmHg 78%
    13:00 +19°C° 0.3 mm 6 mps 733 mmHg 75%
    14:00 +19°C° 0.4 mm 5 mps 733 mmHg 75%
    15:00 +19°C° 0.4 mm 5 mps 733 mmHg 74%
    16:00 +19°C° 0.4 mm 4 mps 733 mmHg 73%
    17:00 +18°C° 0.1 mm 4 mps 733 mmHg 79%
    18:00 +17°C° 0.1 mm 3 mps 733 mmHg 84%
    19:00 +16°C° 0.1 mm 2 mps 733 mmHg 89%
    20:00 +15°C° 0 mm 2 mps 733 mmHg 91%
    21:00 +14°C° 0 mm 2 mps 733 mmHg 94%
    22:00 +13°C° 0 mm 2 mps 734 mmHg 96%
    23:00 +13°C° 0 mm 2 mps 734 mmHg 96%

    Day after tomorrow, 23 May, Thursday

    Time Temperature Precipitation Wind Pressure Humidity
    00:00 +12°C° 0 mm 1 mps 734 mmHg 96%
    01:00 +12°C° 0 mm 1 mps 734 mmHg 96%
    02:00 +12°C° 0 mm 1 mps 735 mmHg 97%
    03:00 +11°C° 0 mm 1 mps 735 mmHg 97%
    04:00 +10°C° 0 mm 0 mps 735 mmHg 97%
    05:00 +12°C° 0 mm 1 mps 735 mmHg 94%
    06:00 +14°C° 0 mm 1 mps 736 mmHg 92%
    07:00 +15°C° 0 mm 2 mps 736 mmHg 89%
    08:00 +16°C° 0.1 mm 2 mps 736 mmHg 85%
    09:00 +17°C° 0.1 mm 2 mps 737 mmHg 81%
    10:00 +18°C° 0.1 mm 2 mps 737 mmHg 77%
    11:00 +19°C° 0.9 mm 3 mps 737 mmHg 76%
    12:00 +20°C° 0.9 mm 4 mps 737 mmHg 75%
    13:00 +20°C° 0.9 mm 5 mps 737 mmHg 74%
    14:00 +20°C° 0.9 mm 6 mps 737 mmHg 77%
    15:00 +18°C° 0.9 mm 7 mps 737 mmHg 79%
    16:00 +18°C° 0.9 mm 8 mps 737 mmHg 82%
    17:00 +17°C° 0.8 mm 7 mps 737 mmHg 85%
    18:00 +16°C° 0.8 mm 7 mps 738 mmHg 88%
    19:00 +15°C° 0.8 mm 7 mps 738 mmHg 91%
    20:00 +15°C° 0.6 mm 7 mps 738 mmHg 92%
    21:00 +14°C° 0.6 mm 6 mps 738 mmHg 93%
    22:00 +14°C° 0.6 mm 6 mps 738 mmHg 94%
    23:00 +13°C° 0.2 mm 6 mps 738 mmHg 94%

    24 May, Friday

    Time Temperature Precipitation Wind Pressure Humidity
    00:00 +13°C° 0.2 mm 6 mps 738 mmHg 94%
    01:00 +11°C° 0.2 mm 6 mps 738 mmHg 94%
    02:00 +10°C° 0.2 mm 6 mps 738 mmHg 93%
    03:00 +10°C° 0.2 mm 6 mps 738 mmHg 92%
    04:00 +9°C° 0.2 mm 6 mps 738 mmHg 91%
    05:00 +9°C° 0.1 mm 5 mps 739 mmHg 89%
    06:00 +10°C° 0.1 mm 5 mps 739 mmHg 87%
    07:00 +10°C° 0.1 mm 5 mps 739 mmHg 85%
    08:00 +12°C° 0.1 mm 5 mps 739 mmHg 83%
    09:00 +13°C° 0.1 mm 5 mps 739 mmHg 81%
    10:00 +13°C° 0.1 mm 5 mps 739 mmHg 78%
    11:00 +14°C° 0.1 mm 5 mps 739 mmHg 75%
    12:00 +15°C° 0.1 mm 5 mps 739 mmHg 72%
    13:00 +16°C° 0.1 mm 5 mps 739 mmHg 68%
    14:00 +17°C° 0 mm 4 mps 738 mmHg 69%
    15:00 +17°C° 0 mm 4 mps 738 mmHg 70%
    16:00 +17°C° 0 mm 3 mps 738 mmHg 71%
    17:00 +17°C° 0 mm 3 mps 738 mmHg 73%
    18:00 +16°C° 0 mm 3 mps 738 mmHg 75%
    19:00 +14°C° 0 mm 3 mps 738 mmHg 77%
    20:00 +13°C° 0 mm 3 mps 738 mmHg 80%
    21:00 +12°C° 0 mm 3 mps 738 mmHg 82%
    22:00 +11°C° 0 mm 3 mps 738 mmHg 85%
    23:00 +11°C° 0 mm 3 mps 738 mmHg 86%

    25 May, Saturday

    Time Temperature Precipitation Wind Pressure Humidity
    00:00 +11°C° 0 mm 3 mps 738 mmHg 87%
    01:00 +12°C° 0 mm 2 mps 738 mmHg 88%
    02:00 +12°C° 0 mm 2 mps 738 mmHg 89%
    03:00 +10°C° 0 mm 3 mps 738 mmHg 90%
    04:00 +10°C° 0 mm 3 mps 738 mmHg 91%
    05:00 +12°C° 0 mm 3 mps 738 mmHg 86%
    06:00 +13°C° 0 mm 3 mps 738 mmHg 80%
    07:00 +15°C° 0 mm 4 mps 738 mmHg 74%
    08:00 +17°C° 0.4 mm 4 mps 738 mmHg 71%
    09:00 +17°C° 0.4 mm 5 mps 738 mmHg 68%
    10:00 +19°C° 0.4 mm 5 mps 738 mmHg 65%
    11:00 +19°C° 0.4 mm 5 mps 738 mmHg 66%
    12:00 +19°C° 0.4 mm 5 mps 738 mmHg 67%
    13:00 +19°C° 0.4 mm 5 mps 738 mmHg 68%
    14:00 +19°C° 0.1 mm 5 mps 738 mmHg 65%
    15:00 +20°C° 0.1 mm 5 mps 737 mmHg 62%
    16:00 +20°C° 0.1 mm 5 mps 737 mmHg 59%
    17:00 +19°C° 0 mm 4 mps 737 mmHg 64%
    18:00 +17°C° 0 mm 3 mps 737 mmHg 70%
    19:00 +14°C° 0 mm 3 mps 738 mmHg 75%
    20:00 +13°C° 0 mm 3 mps 738 mmHg 80%
    21:00 +13°C° 0 mm 2 mps 738 mmHg 84%
    22:00 +10°C° 0 mm 2 mps 738 mmHg 89%
    23:00 +10°C° 0 mm 2 mps 738 mmHg 90%

    26 May, Sunday

    Time Temperature Precipitation Wind Pressure Humidity
    00:00 +10°C° 0 mm 1 mps 738 mmHg 90%
    01:00 +9°C° 0 mm 1 mps 738 mmHg 91%
    02:00 +9°C° 0 mm 1 mps 738 mmHg 91%
    03:00 +8°C° 0 mm 2 mps 738 mmHg 91%
    04:00 +8°C° 0 mm 2 mps 738 mmHg 91%
    05:00 +10°C° 0 mm 3 mps 738 mmHg 85%
    06:00 +12°C° 0 mm 4 mps 738 mmHg 79%
    07:00 +14°C° 0 mm 5 mps 738 mmHg 73%
    08:00 +14°C° 0.1 mm 5 mps 738 mmHg 69%
    09:00 +15°C° 0.1 mm 6 mps 738 mmHg 66%
    10:00 +16°C° 0.1 mm 7 mps 738 mmHg 62%
    11:00 +16°C° 0 mm 7 mps 737 mmHg 61%
    12:00 +16°C° 0 mm 7 mps 737 mmHg 60%
    13:00 +17°C° 0 mm 7 mps 737 mmHg 59%
    14:00 +17°C° 0 mm 6 mps 737 mmHg 59%
    15:00 +16°C° 0 mm 6 mps 737 mmHg 59%
    16:00 +16°C° 0 mm 6 mps 737 mmHg 59%
    17:00 +15°C° 0 mm 5 mps 737 mmHg 65%
    18:00 +14°C° 0 mm 4 mps 737 mmHg 70%
    19:00 +13°C° 0 mm 3 mps 737 mmHg 75%
    20:00 +12°C° 0.3 mm 4 mps 737 mmHg 81%
    21:00 +11°C° 0.3 mm 4 mps 737 mmHg 86%
    22:00 +11°C° 0.3 mm 4 mps 737 mmHg 91%
    23:00 +10°C° 0.1 mm 4 mps 738 mmHg 92%
    Show more